Location: Campillo
(40.8621°N, 4.2488°W)
Time: 13:07:53
(UTC+00:00)

Cosmos 1943 Rocket - Pass Details

Date: 11 May 2021
Orbit: 813 x 842 km, 71.0° (Epoch: 13 June)

Event Time Altitude Azimuth Distance (km) Brightness Sun altitude
Exits shadow 22:13:55 30° 77° (ENE) 1,470 3.3 -24.8°
Drops below altitude 10° 22:17:32 10° 42° (NE) 2,446 4.8 -25.2°
Sets 22:20:10 0° 33° (NNE) 3,379 5.7 -25.4°
